Tracking 29594 objects as of 20-Sep-2024
HD Live streaming from Space Station
objects crossing your sky now

DELTA 1 R/B

Track DELTA 1 R/B now!
10-day predictions


NORAD ID: 9063
Int'l Code: 1976-077B
Perigee: 1,421.5 km
Apogee: 1,517.7 km
Inclination: 102.0 °
Period: 115.2 minutes
Semi major axis: 7840 km
RCS: 5.8014 m2 (large)
Launch date: July 29, 1976
Source: United States (US)
Launch site: AIR FORCE WESTERN TEST RANGE (AFWTR)

Note: This is a ROCKET BODY
Your satellite tracking list
Your tracking list is empty




NASA's NSSDC Master Catalog

Two Line Element Set (TLE):
1 09063U 76077B   24263.68479773 -.00000027  00000-0  12138-3 0  9991
2 09063 101.9776 242.4925 0061345 152.5660  22.2074 12.50484555239665
Source of the keplerian elements: AFSPC